スペースウォッチ-パンスターズ彗星

491P/Spacewatch-PanSTARRS (2024)

English version
Home page
Updated on September 26, 2024

---------------------------------------------------------------------

・ プロフィール

符号 491P/2024 K2
検出日 2024年5月30日
検出光度 21.2等
検出者 Pan-STARRS 1 telescope (Haleakala)

・ 軌道要素

Epoch 2024 Oct. 17.0 TT = JDT 2460600.5                                         
T 2024 Sept. 6.32413 TT                                 Rudenko                 
q   3.7167146            (2000.0)            P               Q                  
n   0.08779242     Peri.  298.92470     -0.32319413     +0.93849887             
a   5.0137732      Node   311.69083     -0.80170035     -0.33975724             
e   0.2586991      Incl.    9.36503     -0.50281419     -0.06152138             
P  11.2                                                                         
>From 216 observations 2013 May 4-2024 May 30, mean residual 0".6.               

・ 光度変化

        m1 = 4.0 + 5 logΔ + 20.0 log r(t - 500)

---------------------------------------------------------------------

軌道要素はM.P.E.C. 2024-Q26に掲載されたものです。
光度グラフはComet for Windowsで作成したものです。

---------------------------------------------------------------------

Copyright(C) Seiichi Yoshida (comet@aerith.net). All rights reserved.